Weather History for Leadville, CO

Change the Weather History Date:

Friday, January 17, 2014

  Actual Average Record
Temperature  
Mean Temperature 18 °F -  
Max Temperature 30 °F 30 °F 39 °F (2000)
Min Temperature 5 °F 4 °F -20 °F (1987)
Degree Days  
Heating Degree Days 47 48  
Month to date heating degree days 836 816  
Since 1 July heating degree days 5591 5717  
Cooling Degree Days 0 0  
Month to date cooling degree days 0 0  
Year to date cooling degree days 0 0  
Moisture  
Dew Point 5 °F    
Average Humidity 65    
Maximum Humidity 87    
Minimum Humidity 42    
Precipitation  
Precipitation 0.00 in 0.01 in 0.33 in (2011)
Month to date precipitation 1.39 0.35  
Year to date precipitation 1.39 0.35  
Sea Level Pressure  
Sea Level Pressure 30.26 in    
Wind  
Wind Speed 9 mph (NNW)    
Max Wind Speed 24 mph    
Max Gust Speed 32 mph    
Visibility 10 miles    
Events      
T = Trace of Precipitation, MM = Missing Value Source: NWS Daily Summary

Daily Weather History Graph

Daily Weather History Graph

Search for Another Location

Airport:

Trip Planner

Search our weather history database for the weather conditions in past years. The results will help you decide how hot, cold, wet, or windy it might be!

Date:

Astronomy

Jan. 17, 2014 Rise Set
Actual Time 7:22 AM MST 5:08 PM MST
Civil Twilight 6:53 AM MST 5:38 PM MST
Nautical Twilight 6:20 AM MST 6:10 PM MST
Astronomical Twilight 5:48 AM MST 6:42 PM MST
Moon 6:56 PM MST (1/17) 7:52 AM MST (1/17)
Length of Visible Light 10h 44m
Length of Day
9h 46m
Full, 98% of the Moon is Illuminated
Jan 17
Full
Jan 23
Last Quarter
Jan 30
New
Feb 6
First Quarter
Feb 14
Full

Hourly Weather History & Observations

Time (MST) Temp. Windchill Dew Point Humidity Pressure Visibility Wind Dir Wind Speed Gust Speed Precip Events Conditions
12:53 AM 7.0 °F -4.5 °F 1.9 °F 80% 30.29 in 10.0 mi North 6.9 mph - N/A   Clear
1:53 AM 6.1 °F -5.6 °F 1.9 °F 83% 30.29 in 10.0 mi North 6.9 mph - N/A   Clear
2:53 AM 8.1 °F -2.0 °F 3.0 °F 80% 30.26 in 10.0 mi NNW 5.8 mph - N/A   Clear
3:53 AM 10.0 °F -4.5 °F 3.9 °F 76% 30.25 in 10.0 mi NNW 11.5 mph - N/A   Clear
4:53 AM 7.0 °F -4.5 °F 1.9 °F 80% 30.30 in 10.0 mi North 6.9 mph - N/A   Clear
5:53 AM 5.0 °F -5.6 °F 1.0 °F 84% 30.35 in 10.0 mi North 5.8 mph - N/A   Clear
6:53 AM 7.0 °F -4.5 °F 1.9 °F 80% 30.33 in 10.0 mi NNE 6.9 mph - N/A   Clear
7:53 AM 7.0 °F -4.5 °F 1.9 °F 80% 30.33 in 10.0 mi NNE 6.9 mph - N/A   Clear
8:53 AM 12.0 °F -1.3 °F 5.0 °F 73% 30.35 in 10.0 mi NNE 10.4 mph - N/A   Clear
9:53 AM 21.0 °F 11.4 °F 6.1 °F 53% 30.29 in 10.0 mi NNW 8.1 mph - N/A   Clear
10:53 AM 24.1 °F 13.7 °F 7.0 °F 48% 30.27 in 10.0 mi North 10.4 mph - N/A   Clear
11:53 AM 26.1 °F 14.5 °F 9.0 °F 49% 30.24 in 10.0 mi WNW 13.8 mph 25.3 mph N/A   Clear
12:53 PM 28.9 °F 18.6 °F 10.0 °F 45% 30.20 in 10.0 mi NW 12.7 mph 20.7 mph N/A   Clear
1:53 PM 28.0 °F 15.3 °F 10.0 °F 47% 30.19 in 10.0 mi WNW 18.4 mph 24.2 mph N/A   Clear
2:53 PM 28.0 °F 15.3 °F 9.0 °F 45% 30.18 in 10.0 mi WNW 18.4 mph 24.2 mph N/A   Clear
3:53 PM 27.0 °F 14.3 °F 9.0 °F 47% 30.17 in 10.0 mi WNW 17.3 mph 20.7 mph N/A   Clear
4:53 PM 23.0 °F 8.0 °F 6.1 °F 48% 30.22 in 10.0 mi WNW 20.7 mph 27.6 mph N/A   Clear
5:53 PM 21.0 °F 7.6 °F 5.0 °F 50% 30.26 in 10.0 mi WNW 15.0 mph - N/A   Clear
6:53 PM 18.0 °F 9.8 °F 6.1 °F 60% 30.27 in 10.0 mi North 5.8 mph - N/A   Clear
7:53 PM 16.0 °F - 5.0 °F 62% 30.28 in 10.0 mi Calm Calm - N/A   Clear
8:53 PM 16.0 °F - 5.0 °F 62% 30.26 in 10.0 mi Calm Calm - N/A   Clear
9:53 PM 12.9 °F 5.2 °F 3.9 °F 67% 30.22 in 10.0 mi East 4.6 mph - N/A   Clear
10:53 PM 12.0 °F - 1.9 °F 64% 30.20 in 10.0 mi Calm Calm - N/A   Clear
11:53 PM 8.1 °F -5.3 °F 1.0 °F 73% 30.23 in 10.0 mi NE 9.2 mph - N/A   Clear